Location: Unspecified
(0.0000°N, 0.0000°E)
Time: 21:57:21
(UTC+01:00)

Sapphire - Visible Passes

Search period start: 23 January 2017 00:00
Search period end: 02 February 2017 00:00
Orbit: 787 x 795 km, 67.1° (Epoch: 23 January)

Date Brightness Start Highest point End Pass type
(mag) Time Alt. Az. Time Alt. Az. Time Alt. Az.
30 Jan ? 21:56:19 10° SSW 21:56:43 12° SSW 21:56:43 12° SSW visible
31 Jan ? 21:25:55 10° S 21:27:29 19° S 21:27:29 19° S visible
01 Feb ? 20:55:46 10° S 20:58:22 23° SSE 20:58:22 23° SSE visible
